CW8078 Weather Reports


Display with metric or nautical units.
time (UTC)temp
F
wind
direction
speed
MPH
gust
MPH
rain 1hr
in
rain 24hr
in
rain mn
in
humidity
%
barometer
mb
20260510114802 56 333 0.0 3.0 0.00 0.01 0.00 65 1015.7
20260510114302 56 11 0.0 3.0 0.00 0.01 0.00 62 1015.6
20260510113802 56 289 0.0 0.0 0.00 0.01 0.00 62 1015.4
20260510113302 56 3 0.0 3.0 0.00 0.01 0.00 62 1015.1
20260510111302 56 17 0.0 1.0 0.00 0.01 0.00 62 1014.8
20260510110802 56 10 0.0 1.0 0.00 0.01 0.00 65 1014.8
20260510110302 56 8 0.0 0.0 0.00 0.01 0.00 63 1014.9
20260510104802 57 299 0.0 1.0 0.00 0.01 0.00 62 1014.6
20260510104303 57 308 0.0 1.0 0.00 0.01 0.00 67 1014.5
20260510103802 57 21 0.0 1.0 0.00 0.01 0.00 64 1014.2
20260510103302 57 339 0.0 3.0 0.00 0.01 0.00 61 1014.3
20260510101803 57 2 0.0 1.0 0.00 0.01 0.00 67 1013.9
20260510101302 57 333 0.0 3.0 0.00 0.01 0.00 64 1013.9
20260510100802 57 19 0.0 0.0 0.00 0.01 0.00 65 1013.8
20260510100302 57 345 0.0 5.0 0.00 0.01 0.00 67 1013.8
20260510094802 57 334 0.0 1.0 0.00 0.01 0.00 70 1013.5
20260510094302 57 4 0.0 0.0 0.00 0.01 0.00 74 1013.4
20260510093302 57 22 0.0 2.0 0.00 0.01 0.00 73 1013.0
20260510091802 57 25 0.0 0.0 0.00 0.01 0.00 77 1013.0
20260510091302 57 328 0.0 0.0 0.00 0.01 0.00 77 1013.0
20260510090803 57 7 0.0 2.0 0.00 0.01 0.00 76 1012.8
20260510090302 57 37 0.0 1.0 0.00 0.01 0.00 79 1012.9
20260510084302 57 27 0.0 0.0 0.00 0.01 0.00 85 1012.5
20260510083802 57 349 0.0 0.0 0.00 0.01 0.00 88 1012.4
20260510083302 57 8 0.0 0.0 0.00 0.01 0.00 88 1012.3
20260510081802 58 12 0.0 0.0 0.00 0.01 0.00 88 1012.0
20260510081302 58 341 0.0 0.0 0.00 0.01 0.00 89 1012.0
20260510080302 58 336 0.0 0.0 0.00 0.01 0.00 91 1012.1
20260510074302 59 302 0.0 0.0 0.00 0.01 0.00 92 1011.9
20260510073302 59 315 0.0 0.0 0.00 0.01 0.00 93 1011.8
20260510071803 60 316 0.0 0.0 0.00 0.01 0.00 92 1011.5
20260510070803 60 316 0.0 0.0 0.00 0.01 0.00 92 1011.6
20260510064802 60 316 0.0 0.0 0.00 0.01 0.00 92 1011.6
20260510064302 60 316 0.0 0.0 0.00 0.01 0.00 92 1011.5
20260510063803 60 316 0.0 0.0 0.00 0.01 0.00 92 1011.6
20260510063303 60 316 0.0 0.0 0.00 0.01 0.00 92 1011.4
20260510061803 60 316 0.0 0.0 0.00 0.01 0.00 91 1011.5
20260510061302 60 316 0.0 0.0 0.00 0.01 0.00 91 1011.3
20260510060803 61 316 0.0 0.0 0.00 0.01 0.00 91 1011.4
20260510054803 61 316 0.0 0.0 0.00 0.01 0.00 91 1011.4
20260510054303 61 316 0.0 0.0 0.00 0.01 0.00 91 1011.1
20260510053803 61 316 0.0 0.0 0.00 0.01 0.00 91 1010.9
20260510053303 61 5 0.0 0.0 0.00 0.01 0.00 91 1010.9
20260510051803 61 61 0.0 0.0 0.00 0.01 0.00 91 1010.9
20260510051302 61 13 0.0 0.0 0.00 0.01 0.00 91 1010.9
20260510050803 61 10 0.0 0.0 0.00 0.01 0.00 91 1010.9
20260510050303 61 333 0.0 0.0 0.00 0.01 0.00 91 1010.7
20260510044803 61 14 0.0 0.0 0.00 0.01 0.01 91 1010.3
20260510044303 61 29 0.0 0.0 0.00 0.01 0.01 91 1010.2
20260510043803 61 29 0.0 0.0 0.00 0.01 0.01 91 1010.0
20260510043303 61 29 0.0 0.0 0.00 0.01 0.01 91 1010.0
20260510041803 62 355 0.0 0.0 0.01 0.01 0.01 90 1009.8
20260510041303 62 355 0.0 0.0 0.01 0.01 0.01 90 1009.8
20260510040802 62 355 0.0 0.0 0.01 0.01 0.01 89 1009.8
20260510040302 62 355 0.0 0.0 0.01 0.01 0.01 89 1009.6
20260510034302 62 355 0.0 0.0 0.01 0.01 0.01 87 1009.4
20260510033802 62 10 0.0 0.0 0.01 0.01 0.01 87 1009.3
20260510033303 63 12 0.0 0.0 0.01 0.01 0.01 86 1009.5
20260510031802 64 32 0.0 0.0 0.00 0.00 0.00 81 1009.7
20260510031302 64 32 0.0 0.0 0.00 0.00 0.00 81 1009.3
20260510030802 64 32 0.0 0.0 0.00 0.00 0.00 81 1009.1
20260510030302 64 21 0.0 0.0 0.00 0.00 0.00 81 1008.9
20260510024803 64 15 0.0 0.0 0.00 0.00 0.00 80 1008.7
20260510023802 64 358 0.0 0.0 0.00 0.01 0.00 80 1008.7
20260510023302 64 330 0.0 5.0 0.00 0.01 0.00 79 1008.6
20260510021802 65 22 0.0 1.0 0.00 0.01 0.00 78 1008.3
20260510021302 65 342 0.0 1.0 0.00 0.01 0.00 78 1008.2
20260510020802 65 342 0.0 6.0 0.00 0.01 0.00 77 1008.0
20260510014802 68 348 0.0 8.0 0.00 0.03 0.00 69 1007.8
20260510014303 69 261 1.0 12.0 0.00 0.05 0.00 67 1008.0
20260510013803 70 306 0.0 3.0 0.00 0.07 0.00 68 1007.9
20260510013302 69 292 2.0 16.0 0.00 0.09 0.00 65 1007.6
20260510010803 71 166 0.0 0.0 0.00 0.18 0.00 65 1005.7
20260510010302 72 166 0.0 0.0 0.00 0.20 0.00 65 1005.6
20260510004802 73 166 0.0 0.0 0.00 0.26 0.00 60 1005.7
20260510003302 74 166 0.0 0.0 0.00 0.33 0.00 59 1005.7
20260510001302 75 166 0.0 0.0 0.00 0.48 0.00 57 1005.6
20260510000803 75 166 0.0 0.0 0.00 0.49 0.00 57 1005.6
20260510000304 75 166 0.0 0.0 0.00 0.49 0.00 55 1005.6
20260509234802 76 166 0.0 0.0 0.00 0.49 0.00 54 1005.6
20260509233802 77 166 0.0 0.0 0.00 0.49 0.00 53 1005.6
20260509233302 77 166 0.0 0.0 0.00 0.49 0.00 54 1005.6
20260509231802 77 166 0.0 0.0 0.00 0.49 0.00 51 1005.7
20260509231303 77 166 0.0 0.0 0.00 0.49 0.00 52 1005.7
20260509230803 77 166 0.0 0.0 0.00 0.49 0.00 48 1005.7
20260509230303 78 166 0.0 0.0 0.00 0.49 0.00 50 1005.7
20260509224302 78 166 0.0 0.0 0.00 0.51 0.00 48 1005.7
20260509223803 78 166 0.0 0.0 0.00 0.51 0.00 48 1005.7
20260509221803 78 171 0.0 2.0 0.00 0.51 0.00 48 1005.6
20260509221302 79 173 0.0 0.0 0.00 0.51 0.00 48 1005.6
20260509220803 79 171 0.0 0.0 0.00 0.51 0.00 47 1005.6
20260509220302 79 173 0.0 0.0 0.00 0.51 0.00 43 1005.7
20260509214802 79 229 0.0 0.0 0.00 0.51 0.00 46 1005.8
20260509213803 79 231 0.0 0.0 0.00 0.52 0.00 48 1005.8
20260509211803 79 207 0.0 0.0 0.00 0.52 0.00 44 1006.0
20260509211303 79 203 0.0 0.0 0.00 0.52 0.00 46 1006.1
20260509210803 79 199 0.0 0.0 0.00 0.52 0.00 45 1006.1
20260509210303 79 225 0.0 0.0 0.00 0.52 0.00 49 1006.1
20260509204802 79 232 0.0 0.0 0.00 0.52 0.00 45 1006.3
20260509204302 79 232 0.0 0.0 0.00 0.52 0.00 43 1006.3
20260509203802 79 267 0.0 0.0 0.00 0.52 0.00 45 1006.3
20260509201802 79 214 0.0 0.0 0.00 0.52 0.00 43 1006.4
20260509201302 79 311 0.0 2.0 0.00 0.52 0.00 47 1006.5
20260509200803 79 278 0.0 0.0 0.00 0.52 0.00 46 1006.5
20260509200302 79 207 0.0 0.0 0.00 0.52 0.00 42 1006.4
20260509194803 79 246 0.0 3.0 0.00 0.52 0.00 46 1006.6
20260509194302 79 111 0.0 0.0 0.00 0.52 0.00 47 1006.5
20260509193803 79 107 0.0 1.0 0.00 0.52 0.00 42 1006.6
20260509193302 79 189 0.0 0.0 0.00 0.52 0.00 47 1006.7
20260509191803 79 211 0.0 0.0 0.00 0.52 0.00 47 1006.7
20260509190803 79 323 0.0 0.0 0.00 0.52 0.00 48 1006.8
20260509190303 78 311 0.0 0.0 0.00 0.52 0.00 47 1006.8
20260509184303 78 181 0.0 0.0 0.00 0.52 0.00 51 1007.0
20260509183803 78 219 0.0 2.0 0.00 0.52 0.00 48 1007.1
20260509183303 78 252 0.0 2.0 0.00 0.52 0.00 53 1007.1
20260509181803 77 256 0.0 1.0 0.00 0.52 0.00 52 1007.2
20260509181303 78 275 0.0 0.0 0.00 0.52 0.00 54 1007.3
20260509180803 78 203 0.0 0.0 0.00 0.52 0.00 54 1007.3
20260509180302 77 214 0.0 3.0 0.00 0.52 0.00 54 1007.3
20260509174803 77 206 0.0 0.0 0.00 0.52 0.00 59 1007.4
20260509174302 77 209 0.0 0.0 0.00 0.52 0.00 58 1007.5
20260509173802 76 220 0.0 0.0 0.00 0.52 0.00 60 1007.5
20260509173303 76 209 0.0 1.0 0.00 0.52 0.00 56 1007.7
20260509171802 76 240 0.0 0.0 0.00 0.52 0.00 60 1007.9
20260509171302 75 243 0.0 0.0 0.00 0.52 0.00 59 1007.8
20260509170803 75 221 0.0 1.0 0.00 0.52 0.00 63 1007.9
20260509170303 75 223 0.0 3.0 0.00 0.52 0.00 62 1007.9
20260509163803 73 217 0.0 0.0 0.00 0.52 0.00 68 1007.8
20260509163303 72 202 0.0 2.0 0.00 0.52 0.00 70 1007.8
20260509161803 71 278 0.0 0.0 0.00 0.52 0.00 73 1007.7
20260509161303 70 199 0.0 2.0 0.00 0.52 0.00 72 1007.8
20260509160803 69 202 0.0 2.0 0.00 0.52 0.00 75 1007.6
20260509160303 69 219 0.0 0.0 0.00 0.52 0.00 79 1007.7
20260509154803 67 212 0.0 0.0 0.00 0.52 0.00 82 1007.7
20260509153802 66 218 0.0 1.0 0.00 0.52 0.00 82 1007.7
20260509153302 65 174 0.0 2.0 0.00 0.52 0.00 84 1007.6
20260509151803 64 166 0.0 2.0 0.00 0.52 0.00 86 1007.7
20260509150803 63 205 0.0 0.0 0.00 0.52 0.00 88 1007.7
20260509150303 63 205 0.0 1.0 0.00 0.52 0.00 89 1007.7
20260509144303 61 134 0.0 0.0 0.00 0.52 0.00 92 1007.8
20260509143303 61 203 0.0 0.0 0.00 0.52 0.00 93 1007.6
20260509141803 59 184 0.0 0.0 0.00 0.52 0.00 95 1007.6
20260509141303 59 184 0.0 0.0 0.00 0.52 0.00 95 1007.6
20260509140303 59 159 0.0 0.0 0.00 0.52 0.00 95 1007.5
20260509134803 58 159 0.0 0.0 0.00 0.52 0.00 96 1007.6
20260509134303 58 159 0.0 0.0 0.00 0.52 0.00 95 1007.6
20260509133803 58 159 0.0 0.0 0.00 0.52 0.00 95 1007.4
20260509133303 58 159 0.0 0.0 0.00 0.52 0.00 95 1007.5
20260509131803 57 159 0.0 0.0 0.00 0.52 0.00 95 1007.4
20260509130303 57 159 0.0 0.0 0.00 0.52 0.00 95 1007.4
20260509124803 56 159 0.0 0.0 0.00 0.52 0.00 95 1007.1
20260509123803 56 159 0.0 0.0 0.00 0.52 0.00 95 1007.0
20260509123303 56 159 0.0 0.0 0.00 0.52 0.00 95 1007.0
20260509121302 56 159 0.0 0.0 0.00 0.52 0.00 95 1007.2
20260509120303 56 159 0.0 0.0 0.00 0.52 0.00 95 1007.0